NOAA 16 DEB

Satellite information

Favourite Embed

Satellite Type and Status

DEBRISDECAYED

Key statistics

Satellite NOAA 16 DEB at a glance.

Uptime

9070

Days in orbit

Revolutions

≈ 15.6

Per day

Orbit

SSO

Sun Synchronous Orbit

Inclination

98.8

Latest

Satellite identification and parameters

Extended collection of information and parameters for NOAA 16 DEB.

Object identification

Identified? True

Debris? True

Object name: NOAA 16 DEB

International designator: 2000-055MT

Object number (NORAD): 41519

Object ID (CCSDS): 41519

Country: UNITED STATES OF AMERICA (US)

Current information (Y/N): Y

RCS size: SMALL

Orbital parameters

Decay date: July 22, 2025

Period: 92.397 minutes

Inclination: 98.7867 deg

SMA: 6770.16 km

Apoapsis: 410.531 km

Periapsis: 373.52 km

RAAN: 339.0083 deg

Eccentricy: 0.0027334

Argument of periapsis: 287.1523 deg

Mean anomaly: 72.6736 deg

Mean motion: 15.58491126 rev/day

Mean motion (dot): 0.01115139 rev/day2

B* drag term: 0.01308 1/REarth

Two-line elements (TLE)

Creation date: July 11, 2025, 6:37 p.m.

Reference frame: TEME

Reference center: EARTH

Epoch: July 11, 2025, 4:26 a.m. UTC

TLE line 0: 0 NOAA 16 DEB

TLE line 1: 1 41519U 00055MT 25192.18492352 .01115139 00000-0 13080-1 0 9997

TLE line 2: 2 41519 98.7867 339.0083 0027334 287.1523 72.6736 15.58491126480184

Live tracking on map

Satellite NOAA 16 DEB has decayed and is no longer in orbit. No tracking available.

In-orbit conjunctions

Satellite NOAA 16 DEB has decayed and is no longer in orbit. No conjunctions available.

Associated space launch

The NOAA K, L and M POES satellites begin the fifth generation of improved environmental monitoring in support of NOAA missions. The instrument payload has significant improvements and additions/deletions. The instrument changes have effected the spacecraft subsystems and data formats.

NOAA 16 DEB was lifted into orbit during the mission ‘Titan II SLV | NOAA 16’, on board a Titan II SLV space rocket.

The launch took place on Sept. 21, 2000, 10:22 a.m. from Space Launch Complex 4W.

For more information about the launch, click the button.

Launch to space Titan II SLV | NOAA 16
Titan II SLV | NOAA 16

Agency: N/A

Status: Launch Successful

Launch date: Sept. 21, 2000, 10:22 a.m. UTC

Rocket: Titan II SLV

Launch pad: Space Launch Complex 4W

Location: Vandenberg SFB, CA, USA

...

Latest news about this satellite

There are no fresh news available about this satellite. Check back as we update our databases every day.


Newsletter sign-up

Weekly statistics, charts and insights to help you stay on top of the space industry.